Location: Aufkirchen
(47.9603°N, 11.3653°E)
Time: 17:23:30
(UTC+01:00)

Transit 2A - Pass Details

Date: 02 December 2020
Orbit: 599 x 960 km, 66.7° (Epoch: 26 January)

Event Time Altitude Azimuth Distance (km) Brightness Sun altitude
Rises 23:24:51 0° 327° (NNW) 3,380 - -63.0°
Reaches altitude 10° 23:28:00 10° 342° (NNW) 2,373 - -63.2°
Maximum altitude 23:32:05 21° 31° (NNE) 1,632 - -63.4°
Drops below altitude 10° 23:35:53 10° 81° (E) 2,182 - -63.5°
Sets 23:38:38 0° 98° (E) 3,034 - -63.7°
